This is the latest recevied weather packets stored in our database for station/object KD0SBN-3. If no packets are shown the sender has not sent any weather packets the latest 10 day(s).
| Time | Temp. | Humidity | Pressure | Rain* | Wind** | Luminosity | Snow |
|---|---|---|---|---|---|---|---|
| 1777555232 | -0.56° C | 97% | 1025.4 hPa | 0 mm | - | 23 W/m² | - |
| 1777554929 | -0.56° C | 97% | 1025.4 hPa | 0 mm | - | 16 W/m² | - |
| 1777554626 | -0.56° C | 97% | 1025.4 hPa | 0 mm | - | 13 W/m² | - |
| 1777554322 | -0.56° C | 97% | 1025.1 hPa | 0 mm | - | 14 W/m² | - |
| 1777554019 | -0.56° C | 97% | 1025 hPa | 0 mm | - | 12 W/m² | - |
| 1777553716 | -0.56° C | 97% | 1024.9 hPa | 0 mm | - | 11 W/m² | - |
| 1777553413 | -0.56° C | 97% | 1025.3 hPa | 0 mm | - | 9 W/m² | - |
| 1777553109 | -0.56° C | 97% | 1025 hPa | 0 mm | - | 8 W/m² | - |
| 1777552809 | -0.56° C | 97% | 1024.9 hPa | 0 mm | - | 9 W/m² | - |
| 1777552505 | -0.56° C | 97% | 1025 hPa | 0 mm | - | 8 W/m² | - |
| 1777552201 | -0.56° C | 97% | 1024.9 hPa | 0 mm | - | 7 W/m² | - |
| 1777551898 | -0.56° C | 97% | 1024.9 hPa | 0 mm | - | 4 W/m² | - |
| 1777551595 | -0.56° C | 97% | 1025 hPa | 0 mm | - | 3 W/m² | - |
| 1777551293 | -0.56° C | 97% | 1024.9 hPa | 0 mm | - | 1 W/m² | - |
| 1777550989 | -0.56° C | 97% | 1024.7 hPa | 0 mm | - | 1 W/m² | - |
| 1777550686 | -0.56° C | 97% | 1024.6 hPa | 0 mm | - | 0 W/m² | - |
| 1777550382 | -0.56° C | 97% | 1024.7 hPa | 0 mm | - | 0 W/m² | - |
| 1777550078 | -0.56° C | 97% | 1024.9 hPa | 0 mm | - | 0 W/m² | - |
| 1777549775 | -0.56° C | 97% | 1024.6 hPa | 0 mm | - | 0 W/m² | - |
| 1777549471 | 0° C | 96% | 1024.9 hPa | 0 mm | - | 0 W/m² | - |
| 1777549167 | -0.56° C | 96% | 1025 hPa | 0 mm | - | 0 W/m² | - |
| 1777548864 | 0° C | 96% | 1025 hPa | 0 mm | - | 0 W/m² | - |
| 1777548561 | 0° C | 96% | 1025.1 hPa | 0 mm | - | 0 W/m² | - |
| 1777548258 | 0° C | 96% | 1025 hPa | 0 mm | - | 0 W/m² | - |
| 1777547954 | 0° C | 96% | 1024.9 hPa | 0 mm | - | 0 W/m² | - |
* Rain latest hour (hover to see other rain measurements)
** Current wind speed in m/s (hover to see current wind gust speed)